This is the latest recevied weather packets stored in our database for station/object IU3OVK-13. If no packets are shown the sender has not sent any weather packets the latest 10 day(s).
| Time | Temp. | Humidity | Pressure | Rain* | Wind** | Luminosity | Snow |
|---|---|---|---|---|---|---|---|
| 1777426494 | 12.22° C | 99% | 1010.7 hPa | - | - | - | - |
| 1777425253 | 12.78° C | 99% | 1009.9 hPa | - | - | - | - |
| 1777424633 | 13.33° C | 99% | 1010.1 hPa | - | - | - | - |
| 1777424014 | 12.22° C | 99% | 1010.4 hPa | - | - | - | - |
| 1777422773 | 13.33° C | 99% | 1010.7 hPa | - | - | - | - |
| 1777422153 | 13.33° C | 99% | 1011.5 hPa | - | - | - | - |
| 1777420912 | 13.33° C | 99% | 1011.6 hPa | - | - | - | - |
| 1777420292 | 13.33° C | 99% | 1011 hPa | - | - | - | - |
| 1777419672 | 13.33° C | 99% | 1011 hPa | - | - | - | - |
| 1777419052 | 13.89° C | 99% | 1011.1 hPa | - | - | - | - |
| 1777418432 | 13.89° C | 99% | 1011 hPa | - | - | - | - |
| 1777417811 | 13.33° C | 99% | 1011.3 hPa | - | - | - | - |
| 1777416571 | 14.44° C | 99% | 1010.5 hPa | - | - | - | - |
| 1777415951 | 13.89° C | 99% | 1010.9 hPa | - | - | - | - |
| 1777415331 | 14.44° C | 99% | 1010.7 hPa | - | - | - | - |
| 1777414711 | 13.89° C | 99% | 1011.1 hPa | - | - | - | - |
| 1777414090 | 13.33° C | 99% | 1011.1 hPa | - | - | - | - |
| 1777413470 | 13.89° C | 99% | 1010.9 hPa | - | - | - | - |
| 1777412230 | 13.89° C | 99% | 1010.5 hPa | - | - | - | - |
| 1777410990 | 14.44° C | 99% | 1010.2 hPa | - | - | - | - |
| 1777410369 | 15° C | 99% | 1010.2 hPa | - | - | - | - |
| 1777409749 | 15° C | 99% | 1010.2 hPa | - | - | - | - |
| 1777409129 | 15° C | 99% | 1010.1 hPa | - | - | - | - |
| 1777408509 | 15° C | 99% | 1010.1 hPa | - | - | - | - |
| 1777407889 | 14.44° C | 99% | 1010 hPa | - | - | - | - |
* Rain since midnight (hover to see other rain measurements)
** Current wind speed in m/s (hover to see current wind gust speed)